Pensacola - Santa Rosa Island Weather Center

Moon Phase Calendar



Online Cameras

 


      

Current Conditions in Tiger Point
10/15/2021 8:58:12 PM

76°F
Feels Like 78
Clouds
Humidity
90%
Pressure
29.97"
Wind
1 mph (W)
Dew Point
73°F
UV Index
0/10 (Low)
Visibility
6 mi

Hourly Forecast

Date & Time Fri, Oct 15
8:00 PM
Fri, Oct 15
9:00 PM
Fri, Oct 15
10:00 PM
Fri, Oct 15
11:00 PM
Sat, Oct 16
12:00 AM
Sat, Oct 16
1:00 AM
Sat, Oct 16
2:00 AM
Sat, Oct 16
3:00 AM
Sat, Oct 16
4:00 AM
Sat, Oct 16
5:00 AM
Sat, Oct 16
6:00 AM
Sat, Oct 16
7:00 AM
Sat, Oct 16
8:00 AM
Sat, Oct 16
9:00 AM
Sat, Oct 16
10:00 AM
Sat, Oct 16
11:00 AM
Sat, Oct 16
12:00 PM
Sat, Oct 16
1:00 PM
Sat, Oct 16
2:00 PM
Sat, Oct 16
3:00 PM
Sat, Oct 16
4:00 PM
Sat, Oct 16
5:00 PM
Sat, Oct 16
6:00 PM
Sat, Oct 16
7:00 PM
Sat, Oct 16
8:00 PM
Sat, Oct 16
9:00 PM
Sat, Oct 16
10:00 PM
Sat, Oct 16
11:00 PM
Sun, Oct 17
12:00 AM
Sun, Oct 17
1:00 AM
Sun, Oct 17
2:00 AM
Sun, Oct 17
3:00 AM
Sun, Oct 17
4:00 AM
Sun, Oct 17
5:00 AM
Sun, Oct 17
6:00 AM
Sun, Oct 17
7:00 AM
Sun, Oct 17
8:00 AM
Sun, Oct 17
9:00 AM
Sun, Oct 17
10:00 AM
Sun, Oct 17
11:00 AM
Sun, Oct 17
12:00 PM
Sun, Oct 17
1:00 PM
Sun, Oct 17
2:00 PM
Sun, Oct 17
3:00 PM
Sun, Oct 17
4:00 PM
Sun, Oct 17
5:00 PM
Sun, Oct 17
6:00 PM
Sun, Oct 17
7:00 PM
Condition
Clouds

Clouds

Clouds

Clouds

Clouds

Clouds

Clouds

Clouds

Clouds

Clouds

Rain

Rain

Clouds

Clouds

Clouds

Clouds

Clouds

Clouds

Clear

Clouds

Clear

Clear

Clear

Clear

Clear

Clear

Clear

Clear

Clouds

Clouds

Clouds

Clouds

Clouds

Clouds

Clouds

Clouds

Clear

Clear

Clear

Clear

Clear

Clear

Clear

Clear

Clear

Clear

Clear

Clear
Temperature 77°F76°F77°F77°F77°F77°F77°F77°F76°F76°F75°F75°F73°F72°F71°F71°F74°F76°F77°F77°F76°F75°F72°F69°F67°F66°F64°F62°F61°F60°F59°F58°F58°F57°F57°F56°F57°F60°F64°F67°F69°F71°F73°F73°F73°F72°F68°F65°F
Feels Like 78°F78°F78°F78°F78°F78°F78°F78°F78°F77°F77°F76°F74°F73°F71°F72°F74°F76°F77°F77°F76°F74°F70°F68°F66°F64°F62°F61°F59°F58°F57°F57°F56°F55°F55°F54°F55°F58°F62°F65°F67°F70°F71°F72°F72°F70°F67°F64°F
Cloudiness 12%12%13%19%29%43%95%70%51%41%34%33%88%93%95%96%92%81%3%13%10%8%6%5%1%2%3%5%11%20%63%52%52%62%65%56%6%4%3%2%2%2%0%1%2%2%2%8%
Visibility 6 mi6 mi6 mi6 mi6 mi6 mi6 mi6 mi6 mi6 mi6 mi6 mi6 mi6 mi6 mi6 mi6 mi6 mi6 mi6 mi6 mi6 mi6 mi6 mi6 mi6 mi6 mi6 mi6 mi6 mi6 mi6 mi6 mi6 mi6 mi6 mi6 mi6 mi6 mi6 mi6 mi6 mi6 mi6 mi6 mi6 mi6 mi6 mi
Precipitation 10%10%14%14%10%11%14%14%13%16%36%52%37%31%21%21%17%12%0%0%0%0%0%0%0%0%0%0%0%0%0%0%0%0%0%0%0%0%0%0%0%0%0%0%0%0%0%0%
Humidity 88%90%88%87%85%85%84%84%84%84%85%85%89%85%83%77%67%57%50%43%40%42%44%45%46%49%49%51%51%52%53%54%56%57%57%58%56%48%41%35%32%30%29%29%30%33%40%45%
Dew Point 73°F73°F73°F73°F72°F72°F71°F71°F71°F71°F70°F70°F69°F67°F65°F64°F62°F60°F56°F53°F50°F50°F49°F47°F46°F46°F45°F44°F43°F42°F42°F42°F42°F42°F41°F41°F41°F40°F39°F38°F38°F38°F38°F39°F39°F42°F43°F44°F
Pressure 29.97"29.97"29.97"29.97"29.94"29.94"29.94"29.94"29.94"29.94"29.94"29.97"30"30.03"30.03"30.03"30.03"30"30"30"30"30.03"30.06"30.09"30.09"30.12"30.15"30.15"30.15"30.15"30.15"30.15"30.15"30.15"30.15"30.18"30.21"30.21"30.21"30.18"30.18"30.15"30.12"30.12"30.09"30.09"30.12"30.12"
Wind Speed 6.8 mph6.7 mph7 mph7.1 mph7.2 mph7.6 mph8 mph8.4 mph8 mph7.7 mph7.2 mph11.1 mph14.6 mph16.2 mph16.8 mph17.2 mph16.7 mph17.1 mph17.3 mph17.4 mph17.3 mph16.3 mph16 mph15.1 mph15 mph15 mph15.4 mph15.8 mph15.8 mph15.8 mph15.5 mph15.3 mph14.9 mph14.4 mph14.2 mph13.7 mph13.5 mph14.6 mph14.8 mph14.2 mph13.9 mph13.4 mph13.3 mph13.2 mph12.9 mph11.7 mph10.6 mph9.7 mph
Wind
Direction
213°
SSW
219°
SW
219°
SW
224°
SW
230°
SW
233°
SW
236°
SW
245°
WSW
249°
WSW
257°
WSW
271°
W
309°
NW
343°
NNW
349°
N
351°
N
353°
N
355°
N
352°
N
351°
N
352°
N
354°
N
357°
N
358°
N
357°
N
357°
N

N
10°
N
11°
N
13°
NNE
16°
NNE
18°
NNE
19°
NNE
18°
NNE
19°
NNE
19°
NNE
20°
NNE
22°
NNE
25°
NNE
24°
NNE
23°
NNE
20°
NNE
15°
NNE
13°
NNE
13°
NNE
14°
NNE
14°
NNE
16°
NNE
21°
NNE

Daily Forecast

Date High Low Precip. Humidity
Today
Oct 15

Clouds
84 °F
73 °F
39%
60%
Saturday
Oct 16

Rain
77 °F
62 °F
52%
67%
Sunday
Oct 17

Clear
73 °F
56 °F
0%
32%
Monday
Oct 18

Clouds
72 °F
57 °F
0%
42%
Tuesday
Oct 19

Rain
77 °F
60 °F
28%
52%
Wednesday
Oct 20

Rain
80 °F
67 °F
34%
51%
Thursday
Oct 21

Rain
81 °F
71 °F
58%
54%
Friday
Oct 22

Rain
82 °F
71 °F
80%
57%
Saturday
Oct 23

Rain
76 °F
63 °F
83%
43%
Sunday
Oct 24

Clear
69 °F
53 °F
0%
30%
Monday
Oct 25

Clouds
71 °F
51 °F
0%
43%
Tuesday
Oct 26

Clouds
72 °F
58 °F
25%
71%
Wednesday
Oct 27

Rain
79 °F
69 °F
89%
71%
Thursday
Oct 28

Clear
74 °F
61 °F
3%
26%
Friday
Oct 29

Clear
72 °F
53 °F
0%
39%
Saturday
Oct 30

Clear
72 °F
58 °F
0%
49%

Temperature 8-14 Day Outlook



Precipitation 8-14 Day Outlook




Quick Links
Pensacola - Santa Rosa Island News
Pensacola - Santa Rosa Island Photos
Pensacola - Santa Rosa Island Videos




About Us
Contact Us
Site Map
Search Site
Advertise With Us
   
Pensacola.USGulf.info
THE PENSACOLA - SANTA ROSA ISLAND WEBSITE

Copyright 2021, Coastal Town
Privacy    |    Legal